Location: Avenches
(46.8809°N, 7.0410°E)
Time: 14:07:13
(UTC+00:00)

USA 245 - Pass Details

Date: 30 March 2020
Orbit: 269 x 1016 km, 97.9° (Epoch: 01 June)

Event Time Altitude Azimuth Distance (km) Brightness Sun altitude
Exits shadow 20:07:45 47° 107° (ESE) 1,037 4.2 -21.4°
Maximum altitude 20:08:43 54° 69° (ENE) 978 4.3 -21.6°
Drops below altitude 10° 20:14:25 10° 354° (N) 2,617 7.2 -22.4°
Sets 20:17:07 0° 350° (N) 3,645 8.1 -22.8°
